^^
Saratoga-Weather Station Historical Data
Daily Summary for July 28, 2020 Units:  English    Metric   Both
Daily Weekly Monthly Yearly Custom
  High: Low: Average:
Temperature: 77.9 °F 62.6 °F 71.6 °F
Dew Point: 62.2 °F 49.8 °F 55.9 °F
Humidity: 75% 46% 59%
Wind Speed: 13mph 0mph 4.3mph
Wind Gust: 17mph - -
Wind- - West
Pressure: 30 in 29.8 in -
Precipitation: 0 in    
Historical Graphs
 
 
Tabular Data for July 28, 2020
Time Temperature Dew Point Pressure Wind Wind Speed Wind Gust Humidity Rainfall Rate (Hourly) solar
00:02 74.7 °F 57.4 °F 29.8 in SW 0.9 mph 1 mph 55% 0 in 0 W/m2
00:07 75 °F 57.7 °F 29.8 in NNW 2 mph 3 mph 55% 0 in 0 W/m2
00:12 75.4 °F 57.6 °F 29.8 in West 0.9 mph 3 mph 54% 0 in 0 W/m2
00:18 75.6 °F 57.7 °F 29.8 in Calm   2 mph 54% 0 in 0 W/m2
00:23 75.7 °F 57.9 °F 29.8 in West 0.9 mph 4 mph 54% 0 in 0 W/m2
00:28 75.7 °F 57.4 °F 29.8 in SW 2.9 mph 3 mph 53% 0 in 0 W/m2
00:33 75.9 °F 57.6 °F 29.8 in WSW 0.9 mph 6 mph 53% 0 in 0 W/m2
00:38 76.3 °F 57.9 °F 29.8 in WNW 2 mph 4 mph 53% 0 in 0 W/m2
00:43 76.5 °F 58.1 °F 29.8 in West 2 mph 2 mph 53% 0 in 0 W/m2
00:48 76.3 °F 57.4 °F 29.8 in West 2 mph 2 mph 52% 0 in 0 W/m2
00:53 76.3 °F 57.4 °F 29.8 in West 0.9 mph 5 mph 52% 0 in 0 W/m2
00:58 75.9 °F 57 °F 29.8 in West 0.9 mph 4 mph 52% 0 in 0 W/m2
01:03 75.9 °F 57 °F 29.8 in South 0.9 mph 7 mph 52% 0 in 0 W/m2
01:08 76.1 °F 56.7 °F 29.8 in West 4 mph 10 mph 51% 0 in 0 W/m2
01:13 75.9 °F 56.5 °F 29.8 in West 4 mph 7 mph 51% 0 in 0 W/m2
01:18 75.7 °F 56.3 °F 29.8 in WNW 0.9 mph 10 mph 51% 0 in 0 W/m2
01:23 75.6 °F 56.7 °F 29.8 in West 6 mph 7 mph 52% 0 in 0 W/m2
01:28 75.4 °F 56.5 °F 29.8 in West 6.9 mph 8 mph 52% 0 in 0 W/m2
01:33 75 °F 56.1 °F 29.8 in NW 4.9 mph 9 mph 52% 0 in 0 W/m2
01:38 74.8 °F 56.1 °F 29.8 in WNW 2.9 mph 6 mph 52% 0 in 0 W/m2
01:43 74.7 °F 56.5 °F 29.8 in West 4 mph 9 mph 53% 0 in 0 W/m2
01:48 74.5 °F 55.8 °F 29.8 in West 2.9 mph 6 mph 52% 0 in 0 W/m2
01:53 74.5 °F 56.3 °F 29.8 in West 4 mph 9 mph 53% 0 in 0 W/m2
01:58 74.1 °F 55.4 °F 29.8 in West 4 mph 7 mph 52% 0 in 0 W/m2
02:03 73.9 °F 55.8 °F 29.8 in West 2.9 mph 6 mph 53% 0 in 0 W/m2
02:08 73.8 °F 55.6 °F 29.8 in West 2.9 mph 7 mph 53% 0 in 0 W/m2
02:13 73.8 °F 55.6 °F 29.8 in NW 2 mph 9 mph 53% 0 in 0 W/m2
02:18 73.8 °F 55.6 °F 29.8 in WNW 2 mph 4 mph 53% 0 in 0 W/m2
02:23 73.6 °F 55.4 °F 29.8 in SW 4 mph 6 mph 53% 0 in 0 W/m2
02:28 73.4 °F 55.2 °F 29.8 in SW 2 mph 8 mph 53% 0 in 0 W/m2
02:33 73.2 °F 55.6 °F 29.8 in SW 4 mph 7 mph 54% 0 in 0 W/m2
02:38 73 °F 55.4 °F 29.8 in WSW 2.9 mph 9 mph 54% 0 in 0 W/m2
02:43 73 °F 55.4 °F 29.8 in West 6.9 mph 11 mph 54% 0 in 0 W/m2
02:48 72.9 °F 55.2 °F 29.8 in WNW 2.9 mph 7 mph 54% 0 in 0 W/m2
02:53 72.9 °F 55.2 °F 29.8 in WNW 8.1 mph 8 mph 54% 0 in 0 W/m2
02:58 72.7 °F 55.6 °F 29.8 in WNW 8.1 mph 11 mph 55% 0 in 0 W/m2
03:03 72.5 °F 55.4 °F 29.8 in SSW 4.9 mph 10 mph 55% 0 in 0 W/m2
03:08 72.3 °F 55.8 °F 29.8 in West 2.9 mph 10 mph 56% 0 in 0 W/m2
03:13 72.3 °F 56.3 °F 29.8 in SW 6.9 mph 9 mph 57% 0 in 0 W/m2
03:18 72.1 °F 56.1 °F 29.8 in West 6 mph 8 mph 57% 0 in 0 W/m2
03:23 72.1 °F 56.5 °F 29.8 in WNW 8.1 mph 9 mph 58% 0 in 0 W/m2
03:28 72 °F 56.3 °F 29.8 in WSW 2 mph 8 mph 58% 0 in 0 W/m2
03:33 71.8 °F 56.1 °F 29.8 in West 4 mph 8 mph 58% 0 in 0 W/m2
03:44 71.4 °F 56.3 °F 29.8 in West 6 mph 11 mph 59% 0 in 0 W/m2
03:49 71.2 °F 56.1 °F 29.8 in West 4 mph 7 mph 59% 0 in 0 W/m2
03:54 71.1 °F 56.5 °F 29.8 in NW 4 mph 7 mph 60% 0 in 0 W/m2
03:59 70.9 °F 56.3 °F 29.8 in West 4 mph 4 mph 60% 0 in 0 W/m2
04:04 70.7 °F 56.1 °F 29.8 in WSW 2.9 mph 6 mph 60% 0 in 0 W/m2
04:09 70.5 °F 55.9 °F 29.8 in WSW 2.9 mph 7 mph 60% 0 in 0 W/m2
04:14 70.3 °F 56.3 °F 29.8 in West 4 mph 4 mph 61% 0 in 0 W/m2
04:19 70.3 °F 56.7 °F 29.8 in WSW 2.9 mph 6 mph 62% 0 in 0 W/m2
04:24 70.3 °F 56.7 °F 29.8 in West 4 mph 8 mph 62% 0 in 0 W/m2
04:29 70.2 °F 57 °F 29.8 in West 6.9 mph 10 mph 63% 0 in 0 W/m2
04:34 70.2 °F 57.4 °F 29.8 in WNW 6.9 mph 7 mph 64% 0 in 0 W/m2
04:39 70 °F 57.2 °F 29.8 in West 6 mph 7 mph 64% 0 in 0 W/m2
04:44 70 °F 57.7 °F 29.8 in West 2.9 mph 4 mph 65% 0 in 0 W/m2
04:49 69.6 °F 57.4 °F 29.8 in NW 2 mph 9 mph 65% 0 in 0 W/m2
04:54 69.6 °F 57.7 °F 29.8 in NW 2.9 mph 6 mph 66% 0 in 0 W/m2
04:59 69.4 °F 57.9 °F 29.8 in WNW 4 mph 8 mph 67% 0 in 0 W/m2
05:04 69.3 °F 57.9 °F 29.8 in West 4 mph 7 mph 67% 0 in 0 W/m2
05:09 69.3 °F 58.3 °F 29.8 in WSW 2 mph 6 mph 68% 0 in 0 W/m2
05:14 69.1 °F 58.1 °F 29.8 in West 2 mph 8 mph 68% 0 in 0 W/m2
05:19 69.1 °F 58.1 °F 29.8 in West 4 mph 4 mph 68% 0 in 0 W/m2
05:24 69.1 °F 58.5 °F 29.8 in WNW 2.9 mph 7 mph 69% 0 in 0 W/m2
05:30 69.1 °F 58.5 °F 29.8 in South 0.9 mph 3 mph 69% 0 in 0 W/m2
05:35 68.9 °F 58.3 °F 29.8 in West 4 mph 5 mph 69% 0 in 0 W/m2
05:40 68.7 °F 58.1 °F 29.8 in WNW 2 mph 4 mph 69% 0 in 0 W/m2
05:45 68.7 °F 58.1 °F 29.8 in West 0.9 mph 4 mph 69% 0 in 0 W/m2
05:50 68.7 °F 58.5 °F 29.8 in West 2.9 mph 3 mph 70% 0 in 0 W/m2
05:55 68.5 °F 58.3 °F 29.8 in Calm   2 mph 70% 0 in 0 W/m2
06:00 68.5 °F 58.3 °F 29.8 in WNW 0.9 mph 3 mph 70% 0 in 0 W/m2
06:05 68.5 °F 58.3 °F 29.8 in Calm   2 mph 70% 0 in 0 W/m2
06:10 68.5 °F 58.3 °F 29.8 in Calm   1 mph 70% 0 in 0 W/m2
06:15 68.5 °F 58.3 °F 29.8 in ENE 0.9 mph 1 mph 70% 0 in 5 W/m2
06:20 68.4 °F 58.3 °F 29.8 in WSW 4.9 mph 7 mph 70% 0 in 7 W/m2
06:25 68.4 °F 58.6 °F 29.8 in West 2.9 mph 3 mph 71% 0 in 11 W/m2
06:30 68.4 °F 58.6 °F 29.8 in NNW 0.9 mph 7 mph 71% 0 in 9 W/m2
06:35 68.4 °F 58.6 °F 29.8 in NW 0.9 mph 1 mph 71% 0 in 11 W/m2
06:40 68.4 °F 58.6 °F 29.8 in Calm   4 mph 71% 0 in 14 W/m2
06:45 68.2 °F 58.8 °F 29.8 in NW 0.9 mph 1 mph 72% 0 in 35 W/m2
06:50 68.2 °F 58.8 °F 29.8 in North 0.9 mph 3 mph 72% 0 in 26 W/m2
06:55 68.2 °F 58.8 °F 29.8 in NW 2 mph 3 mph 72% 0 in 30 W/m2
07:00 68.2 °F 59.2 °F 29.8 in NNW 6 mph 8 mph 73% 0 in 26 W/m2
07:05 68.2 °F 59.2 °F 29.8 in NW 2.9 mph 3 mph 73% 0 in 23 W/m2
07:10 68.2 °F 59.2 °F 29.9 in WNW 0.9 mph 8 mph 73% 0 in 30 W/m2
07:16 68.2 °F 59.2 °F 29.9 in Calm   1 mph 73% 0 in 44 W/m2
07:21 68.2 °F 59.5 °F 29.9 in North 2 mph 2 mph 74% 0 in 37 W/m2
07:26 68.2 °F 59.5 °F 29.9 in NW 2 mph 8 mph 74% 0 in 47 W/m2
07:31 68.4 °F 59.7 °F 29.9 in Calm   1 mph 74% 0 in 88 W/m2
07:36 68.5 °F 59.9 °F 29.9 in NNW 4 mph 6 mph 74% 0 in 60 W/m2
07:41 68.5 °F 59.9 °F 29.9 in WSW 0.9 mph 3 mph 74% 0 in 56 W/m2
07:46 68.5 °F 59.9 °F 29.9 in WSW 2 mph 2 mph 74% 0 in 56 W/m2
07:51 68.5 °F 59.9 °F 29.9 in West 0.9 mph 3 mph 74% 0 in 49 W/m2
07:56 68.7 °F 60.1 °F 29.9 in NW 0.9 mph 6 mph 74% 0 in 58 W/m2
08:01 68.9 °F 60.3 °F 29.9 in SSE 0.9 mph 3 mph 74% 0 in 104 W/m2
08:06 69.1 °F 60.8 °F 29.9 in WSW 0.9 mph 4 mph 75% 0 in 190 W/m2
08:11 69.4 °F 60.8 °F 29.9 in North 0.9 mph 4 mph 74% 0 in 255 W/m2
08:16 70 °F 61.3 °F 29.9 in West 2.9 mph 3 mph 74% 0 in 258 W/m2
08:21 70.2 °F 61.5 °F 29.9 in WNW 2.9 mph 5 mph 74% 0 in 316 W/m2
08:26 70.3 °F 61.3 °F 29.9 in NW 4 mph 7 mph 73% 0 in 155 W/m2
08:31 70.3 °F 61.3 °F 29.9 in West 2 mph 6 mph 73% 0 in 84 W/m2
08:36 70.5 °F 61.9 °F 29.9 in WSW 2.9 mph 7 mph 74% 0 in 91 W/m2
08:41 70.9 °F 62.2 °F 29.9 in NNW 4 mph 4 mph 74% 0 in 134 W/m2
08:46 71.4 °F 61.9 °F 29.9 in WNW 8.9 mph 14 mph 72% 0 in 204 W/m2
08:51 71.2 °F 62.1 °F 29.9 in West 6 mph 6 mph 73% 0 in 216 W/m2
08:56 71.2 °F 61.7 °F 29.9 in WNW 2 mph 14 mph 72% 0 in 199 W/m2
09:01 71.2 °F 62.1 °F 29.9 in WNW 4 mph 8 mph 73% 0 in 186 W/m2
09:06 71.2 °F 62.1 °F 29.9 in WNW 6.9 mph 12 mph 73% 0 in 186 W/m2
09:11 71.1 °F 61.9 °F 29.9 in West 2.9 mph 6 mph 73% 0 in 102 W/m2
09:16 70.9 °F 61.9 °F 29.9 in West 4 mph 7 mph 73% 0 in 107 W/m2
09:21 70.7 °F 62.1 °F 29.9 in WNW 4.9 mph 10 mph 74% 0 in 178 W/m2
09:26 70.9 °F 62.2 °F 29.9 in West 4 mph 6 mph 74% 0 in 183 W/m2
09:31 70.9 °F 61.9 °F 29.9 in West 4 mph 7 mph 73% 0 in 172 W/m2
09:36 70.7 °F 61.7 °F 29.9 in WSW 4 mph 8 mph 73% 0 in 139 W/m2
09:41 70.5 °F 61.5 °F 29.9 in West 4 mph 9 mph 73% 0 in 102 W/m2
09:47 70.5 °F 61.9 °F 29.9 in West 4 mph 7 mph 74% 0 in 114 W/m2
09:52 70.3 °F 61.3 °F 29.9 in NW 4.9 mph 7 mph 73% 0 in 278 W/m2
09:57 70.5 °F 61.5 °F 29.9 in NW 4 mph 10 mph 73% 0 in 675 W/m2
10:02 71.2 °F 62.1 °F 29.9 in WNW 8.9 mph 9 mph 73% 0 in 290 W/m2
10:07 71.8 °F 61.9 °F 29.9 in West 6.9 mph 9 mph 71% 0 in 420 W/m2
10:12 71.6 °F 61.7 °F 29.9 in WNW 6.9 mph 12 mph 71% 0 in 260 W/m2
10:17 71.1 °F 61.2 °F 29.9 in WSW 8.1 mph 8 mph 71% 0 in 548 W/m2
10:22 70.9 °F 61 °F 29.9 in West 2.9 mph 9 mph 71% 0 in 258 W/m2
10:27 70.5 °F 59.9 °F 29.9 in WNW 8.9 mph 10 mph 69% 0 in 260 W/m2
10:32 70.3 °F 59.4 °F 29.9 in WNW 8.1 mph 9 mph 68% 0 in 294 W/m2
10:37 70.2 °F 59.5 °F 29.9 in West 4 mph 10 mph 69% 0 in 223 W/m2
10:42 70 °F 59.4 °F 29.9 in West 2.9 mph 8 mph 69% 0 in 216 W/m2
10:47 70 °F 59.7 °F 29.9 in West 2.9 mph 8 mph 70% 0 in 304 W/m2
10:52 70.3 °F 60.1 °F 29.9 in NW 6 mph 9 mph 70% 0 in 385 W/m2
10:57 70.3 °F 59.7 °F 29.9 in West 2 mph 8 mph 69% 0 in 258 W/m2
11:02 70.3 °F 60.1 °F 29.9 in WNW 6.9 mph 9 mph 70% 0 in 251 W/m2
11:07 70.3 °F 60.1 °F 29.9 in WNW 8.1 mph 12 mph 70% 0 in 563 W/m2
11:12 70.7 °F 60.1 °F 29.9 in WNW 6.9 mph 8 mph 69% 0 in 563 W/m2
11:17 71.2 °F 60.6 °F 29.9 in WNW 6.9 mph 9 mph 69% 0 in 473 W/m2
11:22 71.2 °F 59.7 °F 29.9 in West 2.9 mph 7 mph 67% 0 in 580 W/m2
11:27 71.6 °F 60.1 °F 29.9 in NW 8.1 mph 10 mph 67% 0 in 629 W/m2
11:32 71.8 °F 60.3 °F 29.9 in WNW 6.9 mph 8 mph 67% 0 in 411 W/m2
11:37 71.4 °F 59.9 °F 29.9 in West 6 mph 10 mph 67% 0 in 313 W/m2
11:42 71.2 °F 59.4 °F 29.9 in WNW 6.9 mph 9 mph 66% 0 in 297 W/m2
11:47 71.1 °F 59.2 °F 29.9 in WNW 6.9 mph 10 mph 66% 0 in 399 W/m2
11:52 71.4 °F 59 °F 29.9 in NW 4 mph 8 mph 65% 0 in 343 W/m2
11:57 72.1 °F 59.4 °F 29.9 in WNW 10.1 mph 10 mph 64% 0 in 350 W/m2
12:02 72 °F 59.2 °F 29.9 in WNW 6.9 mph 12 mph 64% 0 in 404 W/m2
12:07 72.1 °F 59.4 °F 29.9 in WSW 8.1 mph 9 mph 64% 0 in 406 W/m2
12:12 72.3 °F 59 °F 29.9 in West 6 mph 11 mph 63% 0 in 364 W/m2
12:17 72 °F 58.3 °F 29.9 in NNW 4.9 mph 8 mph 62% 0 in 415 W/m2
12:22 72.1 °F 58.8 °F 29.9 in West 2 mph 4 mph 63% 0 in 770 W/m2
12:32 72.7 °F 58.8 °F 29.9 in WNW 4.9 mph 12 mph 62% 0 in 810 W/m2
12:37 72.5 °F 58.8 °F 29.9 in WSW 0.9 mph 8 mph 62% 0 in 251 W/m2
12:42 72.5 °F 58.3 °F 29.9 in West 11 mph 12 mph 61% 0 in 315 W/m2
12:48 72.9 °F 58.6 °F 29.9 in WNW 6.9 mph 10 mph 61% 0 in 339 W/m2
12:53 73.6 °F 58.8 °F 29.9 in NW 11 mph 15 mph 60% 0 in 1042 W/m2
12:58 73.9 °F 59.2 °F 29.9 in NW 11 mph 15 mph 60% 0 in 1046 W/m2
13:03 73.9 °F 57.7 °F 29.9 in SW 10.1 mph 12 mph 57% 0 in 353 W/m2
13:08 74.5 °F 58.8 °F 29.9 in WNW 2.9 mph 7 mph 58% 0 in 1088 W/m2
13:13 75 °F 58.3 °F 29.9 in West 6.9 mph 7 mph 56% 0 in 949 W/m2
13:18 75 °F 57.7 °F 29.9 in West 2.9 mph 11 mph 55% 0 in 251 W/m2
13:23 74.7 °F 57.4 °F 29.9 in West 8.1 mph 10 mph 55% 0 in 250 W/m2
13:28 74.5 °F 57.2 °F 29.9 in NNW 4 mph 7 mph 55% 0 in 178 W/m2
13:33 74.5 °F 57.2 °F 29.9 in West 6 mph 12 mph 55% 0 in 963 W/m2
13:38 74.5 °F 56.7 °F 29.9 in NW 10.1 mph 14 mph 54% 0 in 420 W/m2
13:43 74.7 °F 56.8 °F 29.9 in WNW 4.9 mph 12 mph 54% 0 in 338 W/m2
13:48 74.7 °F 56.8 °F 29.9 in West 10.1 mph 13 mph 54% 0 in 979 W/m2
13:53 75.2 °F 56.8 °F 29.9 in NW 6 mph 7 mph 53% 0 in 977 W/m2
13:58 75.7 °F 56.8 °F 29.9 in WNW 4 mph 5 mph 52% 0 in 947 W/m2
14:03 76.5 °F 57 °F 29.9 in North 2 mph 11 mph 51% 0 in 965 W/m2
14:08 76.8 °F 56.3 °F 29.9 in NW 4.9 mph 9 mph 49% 0 in 1042 W/m2
14:13 76.6 °F 56.7 °F 29.9 in WSW 12.1 mph 12 mph 50% 0 in 1021 W/m2
14:18 76.5 °F 56.5 °F 29.9 in West 2.9 mph 9 mph 50% 0 in 907 W/m2
14:24 75.6 °F 55.6 °F 29.9 in West 10.1 mph 14 mph 50% 0 in 241 W/m2
14:29 74.8 °F 55.6 °F 29.9 in SW 4 mph 14 mph 51% 0 in 216 W/m2
14:34 74.8 °F 56.1 °F 29.9 in WNW 4 mph 8 mph 52% 0 in 1065 W/m2
14:39 75.7 °F 56.3 °F 29.9 in West 2 mph 8 mph 51% 0 in 810 W/m2
14:44 76.6 °F 56.1 °F 29.9 in WSW 8.9 mph 13 mph 49% 0 in 921 W/m2
14:49 76.8 °F 56.3 °F 29.9 in NNW 8.1 mph 8 mph 49% 0 in 895 W/m2
14:54 77.5 °F 56.8 °F 29.9 in NW 0.9 mph 6 mph 49% 0 in 895 W/m2
14:59 77.7 °F 56.5 °F 29.9 in WSW 4 mph 9 mph 48% 0 in 846 W/m2
15:04 77.9 °F 56.7 °F 29.9 in WSW 6.9 mph 8 mph 48% 0 in 661 W/m2
15:09 77.4 °F 56.1 °F 29.9 in West 8.1 mph 8 mph 48% 0 in 536 W/m2
15:14 76.8 °F 56.3 °F 29.9 in WNW 6.9 mph 9 mph 49% 0 in 443 W/m2
15:19 77 °F 55.8 °F 29.9 in West 4 mph 8 mph 48% 0 in 738 W/m2
15:24 76.8 °F 55 °F 29.9 in WNW 6 mph 14 mph 47% 0 in 452 W/m2
15:29 76.3 °F 54.5 °F 29.9 in NW 13 mph 13 mph 47% 0 in 443 W/m2
15:34 76.1 °F 55 °F 29.9 in West 6.9 mph 16 mph 48% 0 in 320 W/m2
15:39 75.9 °F 54.9 °F 29.9 in WSW 4 mph 5 mph 48% 0 in 334 W/m2
15:44 75.9 °F 55.4 °F 29.9 in WNW 6.9 mph 12 mph 49% 0 in 369 W/m2
15:49 75.7 °F 55.2 °F 29.9 in SW 11 mph 11 mph 49% 0 in 346 W/m2
15:54 75.9 °F 55.4 °F 29.9 in West 6.9 mph 9 mph 49% 0 in 334 W/m2
15:59 75.7 °F 55.2 °F 29.9 in WNW 4.9 mph 8 mph 49% 0 in 371 W/m2
16:04 75.7 °F 55.2 °F 29.9 in West 4 mph 9 mph 49% 0 in 345 W/m2
16:09 75.6 °F 55 °F 29.9 in West 6 mph 17 mph 49% 0 in 348 W/m2
16:15 75.4 °F 54.9 °F 29.9 in West 6 mph 11 mph 49% 0 in 334 W/m2
16:20 75 °F 54.5 °F 29.9 in West 4 mph 16 mph 49% 0 in 297 W/m2
16:25 75.4 °F 54.9 °F 29.9 in WNW 8.1 mph 12 mph 49% 0 in 302 W/m2
16:30 75.2 °F 54.1 °F 29.9 in WSW 6.9 mph 13 mph 48% 0 in 338 W/m2
16:35 75 °F 54 °F 29.9 in NW 4 mph 9 mph 48% 0 in 311 W/m2
16:40 75 °F 54 °F 29.9 in NW 4.9 mph 13 mph 48% 0 in 318 W/m2
16:45 75 °F 54 °F 29.9 in WNW 2.9 mph 8 mph 48% 0 in 323 W/m2
16:50 75.4 °F 53.8 °F 29.9 in NW 4 mph 8 mph 47% 0 in 573 W/m2
16:55 75.7 °F 54.1 °F 29.9 in NW 4.9 mph 14 mph 47% 0 in 652 W/m2
17:00 75.9 °F 54.3 °F 29.9 in WNW 2.9 mph 4 mph 47% 0 in 698 W/m2
17:05 76.1 °F 53.8 °F 29.9 in WNW 6.9 mph 16 mph 46% 0 in 279 W/m2
17:10 75.4 °F 53.2 °F 29.9 in NW 4.9 mph 8 mph 46% 0 in 257 W/m2
17:15 74.8 °F 52.7 °F 29.9 in WNW 4.9 mph 13 mph 46% 0 in 274 W/m2
17:20 74.5 °F 52.9 °F 29.9 in NNW 10.1 mph 10 mph 47% 0 in 294 W/m2
17:25 74.5 °F 52.9 °F 29.9 in WNW 8.1 mph 9 mph 47% 0 in 327 W/m2
17:30 74.5 °F 52.9 °F 29.9 in WNW 2.9 mph 13 mph 47% 0 in 357 W/m2
17:35 74.3 °F 53.4 °F 29.9 in NW 4 mph 10 mph 48% 0 in 355 W/m2
17:40 74.5 °F 53.4 °F 29.9 in West 10.1 mph 13 mph 48% 0 in 304 W/m2
17:45 74.3 °F 52.7 °F 29.9 in West 10.1 mph 11 mph 47% 0 in 388 W/m2
17:50 74.1 °F 53.2 °F 29.9 in WNW 8.9 mph 12 mph 48% 0 in 596 W/m2
17:55 74.1 °F 53.2 °F 29.9 in WSW 8.9 mph 9 mph 48% 0 in 357 W/m2
18:00 73.9 °F 53.1 °F 29.9 in North 4.9 mph 10 mph 48% 0 in 424 W/m2
18:05 73.9 °F 53.1 °F 29.9 in WNW 2.9 mph 11 mph 48% 0 in 297 W/m2
18:10 73.8 °F 52.9 °F 29.9 in NNW 4.9 mph 12 mph 48% 0 in 345 W/m2
18:15 73.8 °F 52.9 °F 29.9 in West 2 mph 8 mph 48% 0 in 320 W/m2
18:20 73.8 °F 52.9 °F 29.9 in WNW 2.9 mph 12 mph 48% 0 in 218 W/m2
18:25 73.6 °F 52.7 °F 29.9 in NW 8.9 mph 9 mph 48% 0 in 204 W/m2
18:30 73 °F 52.7 °F 29.9 in West 6.9 mph 12 mph 49% 0 in 230 W/m2
18:35 72.9 °F 52.5 °F 30 in WNW 4.9 mph 8 mph 49% 0 in 253 W/m2
18:40 72.9 °F 52.5 °F 30 in West 8.9 mph 12 mph 49% 0 in 244 W/m2
18:45 73 °F 53.2 °F 29.9 in WNW 2.9 mph 10 mph 50% 0 in 410 W/m2
18:50 73.4 °F 53.1 °F 30 in WNW 4 mph 12 mph 49% 0 in 325 W/m2
18:55 73.4 °F 52.5 °F 30 in WNW 8.1 mph 12 mph 48% 0 in 294 W/m2
19:01 73 °F 52.7 °F 30 in WNW 4 mph 9 mph 49% 0 in 241 W/m2
19:06 72.9 °F 52.5 °F 30 in WNW 10.1 mph 10 mph 49% 0 in 185 W/m2
19:11 72.5 °F 52.9 °F 30 in WNW 8.1 mph 11 mph 50% 0 in 144 W/m2
19:16 72.3 °F 52.7 °F 30 in NW 6 mph 8 mph 50% 0 in 216 W/m2
19:21 72.3 °F 52.2 °F 30 in WNW 8.9 mph 11 mph 49% 0 in 199 W/m2
19:26 72.1 °F 52.5 °F 30 in WSW 4.9 mph 11 mph 50% 0 in 163 W/m2
19:31 72.1 °F 52 °F 30 in WSW 8.9 mph 16 mph 49% 0 in 132 W/m2
19:36 71.8 °F 52.2 °F 30 in North 8.1 mph 9 mph 50% 0 in 74 W/m2
19:41 71.2 °F 51.6 °F 30 in NW 2 mph 9 mph 50% 0 in 62 W/m2
19:46 71.1 °F 51.4 °F 30 in West 2 mph 5 mph 50% 0 in 54 W/m2
19:51 71.1 °F 51.4 °F 30 in WNW 12.1 mph 12 mph 50% 0 in 91 W/m2
19:56 71.1 °F 51.4 °F 30 in West 8.1 mph 9 mph 50% 0 in 74 W/m2
20:01 70.9 °F 50.7 °F 30 in WSW 8.1 mph 11 mph 49% 0 in 51 W/m2
20:06 70.5 °F 50.9 °F 30 in WSW 2.9 mph 4 mph 50% 0 in 69 W/m2
20:11 70.5 °F 50.9 °F 30 in WSW 4 mph 9 mph 50% 0 in 114 W/m2
20:16 70.5 °F 50.9 °F 30 in West 4 mph 6 mph 50% 0 in 67 W/m2
20:21 70.3 °F 50.9 °F 30 in West 4 mph 6 mph 50% 0 in 69 W/m2
20:27 70.3 °F 50.9 °F 30 in WNW 4.9 mph 5 mph 50% 0 in 84 W/m2
20:32 70.3 °F 50.9 °F 30 in WNW 2.9 mph 5 mph 50% 0 in 63 W/m2
20:37 70.2 °F 50.7 °F 30 in WNW 4 mph 4 mph 50% 0 in 44 W/m2
20:42 69.8 °F 50.4 °F 30 in WNW 2.9 mph 7 mph 50% 0 in 37 W/m2
20:47 69.4 °F 50 °F 30 in WSW 2.9 mph 4 mph 50% 0 in 30 W/m2
20:52 69.3 °F 50.4 °F 30 in WSW 4.9 mph 7 mph 51% 0 in 21 W/m2
20:57 68.9 °F 50 °F 30 in West 2.9 mph 7 mph 51% 0 in 14 W/m2
21:02 68.5 °F 50.2 °F 30 in WNW 2 mph 3 mph 52% 0 in 16 W/m2
21:07 68.4 °F 50.5 °F 30 in WNW 4 mph 7 mph 53% 0 in 12 W/m2
21:12 68.2 °F 50.4 °F 30 in West 0.9 mph 3 mph 53% 0 in 11 W/m2
21:17 67.8 °F 50 °F 30 in WNW 2 mph 7 mph 53% 0 in 7 W/m2
21:22 67.6 °F 50.4 °F 30 in WNW 0.9 mph 3 mph 54% 0 in 7 W/m2
21:27 67.5 °F 50.7 °F 30 in NW 2.9 mph 4 mph 55% 0 in 5 W/m2
21:32 67.3 °F 50.5 °F 30 in West 2 mph 3 mph 55% 0 in 5 W/m2
21:37 67.3 °F 50.5 °F 30 in West 7 mph 7 mph 55% 0 in 0 W/m2
21:42 67.1 °F 50.4 °F 30 in WSW 0.9 mph 2 mph 55% 0 in 0 W/m2
21:47 66.9 °F 50.2 °F 30 in West 2.9 mph 4 mph 55% 0 in 0 W/m2
21:52 66.7 °F 50.5 °F 30 in WNW 2 mph 3 mph 56% 0 in 0 W/m2
21:57 66.6 °F 50.4 °F 30 in West 2.9 mph 4 mph 56% 0 in 0 W/m2
22:02 66.6 °F 50.4 °F 30 in NW 2 mph 4 mph 56% 0 in 0 W/m2
22:07 66.6 °F 50.4 °F 30 in NW 2 mph 4 mph 56% 0 in 0 W/m2
22:12 66.4 °F 50.7 °F 30 in NW 0.9 mph 2 mph 57% 0 in 0 W/m2
22:17 66.4 °F 50.7 °F 30 in WNW 0.9 mph 5 mph 57% 0 in 0 W/m2
22:22 66 °F 50.4 °F 30 in West 2.9 mph 3 mph 57% 0 in 0 W/m2
22:27 65.8 °F 50.2 °F 30 in West 2 mph 3 mph 57% 0 in 0 W/m2
22:32 65.7 °F 50.5 °F 30 in WNW 0.9 mph 4 mph 58% 0 in 0 W/m2
22:37 65.5 °F 50.4 °F 30 in West 2 mph 3 mph 58% 0 in 0 W/m2
22:42 65.5 °F 50.4 °F 30 in WSW 2.9 mph 4 mph 58% 0 in 0 W/m2
22:47 65.1 °F 50.4 °F 30 in West 2.9 mph 4 mph 59% 0 in 0 W/m2
22:52 65.1 °F 50.4 °F 30 in West 2 mph 3 mph 59% 0 in 0 W/m2
22:57 64.9 °F 50.2 °F 30 in WNW 0.9 mph 4 mph 59% 0 in 0 W/m2
23:02 64.8 °F 50.2 °F 30 in West 2 mph 3 mph 59% 0 in 0 W/m2
23:07 64.8 °F 50.2 °F 30 in West 2 mph 4 mph 59% 0 in 0 W/m2
23:13 64.8 °F 50.2 °F 30 in West 0.9 mph 3 mph 59% 0 in 0 W/m2
23:18 64.8 °F 50.2 °F 30 in West 2 mph 4 mph 59% 0 in 0 W/m2
23:23 64.6 °F 50.4 °F 30 in WSW 0.9 mph 3 mph 60% 0 in 0 W/m2
23:28 64.2 °F 50 °F 30 in WSW 2 mph 4 mph 60% 0 in 0 W/m2
23:33 64 °F 50.4 °F 30 in WSW 2 mph 2 mph 61% 0 in 0 W/m2
23:38 63.7 °F 50 °F 30 in WNW 0.9 mph 2 mph 61% 0 in 0 W/m2
23:43 63.3 °F 50 °F 30 in Calm   1 mph 62% 0 in 0 W/m2
23:48 63 °F 49.8 °F 30 in WNW 0.9 mph 2 mph 62% 0 in 0 W/m2
23:53 62.8 °F 50 °F 30 in WNW 0.9 mph 2 mph 63% 0 in 0 W/m2
23:58 62.6 °F 49.8 °F 30 in WNW 2 mph 2 mph 63% 0 in 0 W/m2
Juneau County Weather
Compliments of Weather Underground - 4 mb